{"data":{"norad_id":58006,"intl_designator":"2023-153R","name":"STARLINK-30526","alt_names":[],"object_type":"PAYLOAD","status":"ACTIVE","operator":null,"country":"US","launch_date":"2023-10-05","launch_site_code":"AFETR","launch_vehicle":null,"mission":null,"orbit_class":"UNKNOWN","rcs_meters":null,"size_class":null,"mass_kg":null,"dimensions":null,"purposes":["comms"],"wikipedia_slug":null,"has_3d_model":false,"image_url":null,"decayed_at":null,"tle_current":{"epoch":"2026-09-20T08:59:26.728224Z","epoch_age_seconds":148443,"freshness":"FRESH","line1":"1 58006U 23153R   26263.37461491  .00001768  00000+0  55371-4 0  9993","line2":"2 58006  43.0017  17.0113 0001448 272.4064  87.6625 15.37149508165022","mean_motion":15.37149508,"eccentricity":0.0001448,"inclination_deg":43.0017,"raan_deg":17.0113,"arg_perigee_deg":272.4064,"mean_anomaly_deg":87.6625,"bstar":5.5371e-5,"rev_number":16502,"period_min":93.679892066816,"perigee_km":453.55393457271,"apogee_km":455.53267878953,"semimajor_km":6832.6803066811,"source":"CELESTRAK","updated_at":"2026-09-21T09:00:33.755873Z"}}}